Location: Beuerbach
(48.1459°N, 10.9174°E)
Time: 22:05:52
(UTC+00:00)

Cosmos 1315 Rocket - Pass Details

Date: 23 May 2024
Orbit: 515 x 542 km, 81.2° (Epoch: 14 June)

Event Time Altitude Azimuth Distance (km) Brightness Sun altitude
Exits shadow 01:40:11 21° 242° (WSW) 1,228 4.1 -13.7°
Maximum altitude 01:42:03 31° 289° (WNW) 936 3.8 -13.6°
Drops below altitude 10° 01:45:35 10° 353° (N) 1,786 6.1 -13.2°
Sets 01:47:56 0° 4° (N) 2,687 7.4 -13.0°
